STARLINK-37515, 69169

Orbit data source: Space-Track

STARLINK-37515, 69169 is a payload satellite owned by SpaceX/Seattle (US) in LEO that was launched on Thu, 21 May 2026 UTC via an FALCON 9 launch vehicle from the Air Force Eastern Test Range (AFETR). Payload-class satellites include a variety of spacecraft equipped with specific instruments for various scientific and technological missions. These include communications satellites like Starlink; space stations such as the ISS; scientific satellites like the Hubble; Earth observation satellites from companies like Planet Labs, Umbra, and HawkEye 360; GPS; miniature CubeSats for education and research; and military/defense satellites.

Loading next visibility...
Identifier
69169, 2026-111X
Orbit
LEO
Country
Flag of USUS
Related business
Manufacturer
SpaceX/Seattle
Mission
Operational spacecraft
Bus & Motor
STARLINK V2MO, Unknown motor
Mass
575 kg wet, ~530 kg dry
Launch date (UTC)
2026-05-21 (1 month ago)
Launch vehicle
FALCON 9
Launch site
Air Force Eastern Test Range (AFETR)
Object type
Payload
Rocket body
Debris
Shape & HBR
Unknown shape, 14.5 m
Radar Cross Section
Large (>1 m²)

Expand to show TLE details & history
Last TLE update: 10 hours ago

TLE from 10 hours ago
0 STARLINK-37515
1 69169U 26111X   26171.41668980  .00060040  00000-0  10805-2 0  9997
2 69169  53.1587 136.6157 0001052  81.2687 352.2195 15.49276921  6077
Epoch: 2026-06-20T10:00Z
TLE epoch observation values (Epoch: 2026-06-20T10:00:01.998Z)
Latitude
50.26162°
Longitude
141.63796°
Altitude
424.004 km
Speed
7.664 km/s
True Right ascension
13h 21m 06s
True Declination
50° 05' 03"
Sunlit
Object was in daylight at epoch
Visualization orbit readout
Latitude
Unknown
Longitude
Unknown
Altitude
Unknown
Speed
Unknown
Apparent Right ascension
Unknown
Apparent Declination
Unknown
Sunlit
N/A
Visualization observer readout
Local Sidereal Time
07:14:27
Azimuth
Unknown
Elevation
Unknown
Doppler factor
Unknown
Orbital elements
Apogee altitude
419.814 km
Perigee altitude
418.384 km
Semi-major axis
6,797.236 km
Eccentricity
0.00011
Inclination
53.1587°
RAAN
136.6157°
Arg. of periapsis
81.2687°
True anomaly
352.21787°
Mean anomaly
352.2195°
Eccentric anomaly
352.21868°
Mean motion
3.87297 °/min
Orbital period
92.95 mins
BSTAR
0.0010805
Loading maneuver chart data...
Computing Atmospheric mass density...
Loading historical data...
Loading historical data...
Loading historical data...
Loading historical data...
Loading historical data...
Loading historical data...
Loading historical data...

Documentation

Showing up to 5 results
|